Simultaneous Nadir Overpasses (SNOs) Predictions

Prediction of SNOs between NPP and TERRA Satellite Orbit:

Table of predicted SNOs for the next 14.0 days since TLE Epoch: 10/5/2012
Index Date (NPP) Time (NPP) Lat,Lon (NPP) SZA (NPP ) Date (TERRA) Time (TERRA) Lat,Lon (TERRA) SZA (TERRA ) Distance(km) Time Diff (sec)
1 10/06/2012 11:27:55 69.01, 5.33 74.27 10/06/2012 11:29:03 68.89, 6.91 74.16 64.47 68
2 10/06/2012 12:18:24 -68.23, 173.69 106.50 10/06/2012 12:18:43 -68.22, 173.72 106.51 1.61 19
3 10/06/2012 13:09:07 68.05, -18.78 73.34 10/06/2012 13:08:11 68.05, -18.83 73.34 2.06 56
4 10/09/2012 03:44:35 68.31, 122.05 74.59 10/09/2012 03:45:39 68.28, 122.05 74.56 3.61 64
5 10/09/2012 04:35:16 -68.17, -70.45 105.54 10/09/2012 04:35:09 -68.17, -70.45 105.54 0.29 7
6 10/09/2012 05:25:53 67.67, 97.47 73.99 10/09/2012 05:24:42 67.71, 96.67 74.02 34.12 71
7 10/11/2012 20:01:26 68.25,-122.10 75.55 10/11/2012 20:02:03 68.26,-122.08 75.56 1.49 37
8 10/11/2012 20:52:07 -68.10, 45.41 104.59 10/11/2012 20:51:34 -68.10, 45.36 104.60 1.89 33
9 10/14/2012 11:27:44 -68.83,-174.39 102.89 10/14/2012 11:28:54 -68.74,-173.25 102.97 47.36 70
10 10/14/2012 12:18:18 68.19, -6.24 76.49 10/14/2012 12:18:29 68.17, -6.29 76.47 2.64 11
11 10/14/2012 13:09:00 -68.09, 161.20 103.60 10/14/2012 13:07:59 -68.07, 161.22 103.63 2.74 61
12 10/17/2012 03:44:27 -68.28, -57.90 102.45 10/17/2012 03:45:26 -68.30, -57.88 102.43 1.95 59
13 10/17/2012 04:35:10 68.13, 109.61
